Theta_e
284 285 285 285 285 284 284 284 284 285 285 284 284 284 284 285 284 284 285 285 284 285 285 283 284 284 284 284 284 284 284 284 284 284 284 284 284 284 284 284 283 282 284 283 283 283 283 282 282 282 282 282 281 282 282 282 282 282 282 281 281 281 280 279 277 277 279 282 281 281 282 282 281 282 282 282 283 283 286 284 284 284 284 284 284
285 285 284 285 284 285 284 284 284 284 284 284 284 284 284 284 284 284 283 284 284 284 284 284 284 284 283 283 284 283 284 284 284 284 284 284 283 286 285 283 282 282 282 281 282 284 283 281 282 282 282 282 282 281 281 281 281 280 280 281 280 280 281 279 278 277 276 279 279 281 281 282 280 282 281 281 282 283 282 283 284 284 284 283 283
286 285 285 285 285 285 285 284 285 284 283 283 283 284 284 283 284 283 283 284 284 284 284 283 284 283 283 284 283 283 283 283 283 284 283 283 282 283 284 283 282 282 281 282 282 282 282 282 282 282 284 281 281 281 281 280 281 280 280 280 279 280 280 280 278 276 276 277 279 278 279 280 280 280 282 282 282 283 282 282 282 283 284 283 283
286 286 285 285 285 285 285 285 284 284 284 284 283 283 284 284 284 284 284 284 284 284 284 284 284 283 283 283 283 283 283 283 283 283 284 283 282 283 282 282 282 282 282 282 282 282 281 281 281 282 282 281 280 280 280 280 280 280 280 280 280 279 279 279 279 277 277 275 277 278 279 279 280 281 282 282 281 281 282 282 282 282 282 283 283
286 286 285 285 284 284 284 284 284 284 284 284 284 284 284 284 284 284 284 284 284 284 284 284 284 283 284 283 283 283 283 283 283 283 283 283 283 283 282 282 282 282 282 282 284 282 282 281 282 281 281 280 280 280 280 279 280 280 279 279 279 279 279 279 278 278 277 276 276 278 279 279 280 280 280 279 280 280 281 280 281 281 281 282 283
286 286 285 284 284 284 284 284 284 284 284 284 284 284 284 284 284 284 284 284 284 284 284 284 285 284 284 283 283 283 283 282 283 282 283 283 283 282 282 282 282 281 281 282 282 282 282 282 282 281 280 280 280 280 280 279 279 279 278 278 278 278 277 278 278 278 277 277 276 276 277 277 277 277 279 279 278 278 278 279 280 280 280 280 281
286 285 285 284 284 284 284 284 285 284 285 285 285 284 284 284 284 284 284 284 284 284 284 284 284 284 284 283 283 283 283 283 283 282 282 282 282 282 282 282 282 281 281 282 282 282 282 281 281 281 281 280 280 280 279 279 279 278 278 278 278 277 277 277 277 277 277 276 276 276 276 277 277 276 278 279 279 278 277 277 277 279 280 279 279
285 285 285 284 285 285 285 285 284 285 285 285 285 285 285 284 284 284 284 284 284 284 284 284 284 284 283 283 283 283 282 282 282 282 282 282 282 282 282 281 281 281 281 281 281 281 281 281 281 281 281 281 280 280 279 279 279 278 278 278 278 278 277 277 276 276 276 275 275 275 276 276 276 277 278 277 276 276 277 277 275 276 277 279 279
285 284 284 284 285 285 285 284 285 285 284 285 285 285 285 284 284 284 284 284 285 285 285 284 283 283 283 283 283 283 283 283 284 283 282 282 282 282 282 281 280 280 280 280 280 281 280 281 281 281 283 285 285 285 284 284 281 279 279 279 278 278 277 277 276 276 276 275 275 276 276 275 276 276 275 275 275 275 277 277 276 277 277 277 278
284 284 284 284 285 284 284 284 285 284 285 285 285 284 284 284 284 284 284 284 284 284 283 284 283 283 282 282 282 284 284 285 286 287 287 284 282 283 282 280 280 279 279 279 279 280 280 280 282 284 284 284 284 284 285 285 284 282 280 279 279 278 277 277 276 276 276 275 275 275 274 274 275 275 275 275 276 276 276 276 275 276 276 276 277
284 284 285 285 285 283 283 284 283 283 284 285 284 284 284 284 284 284 284 283 283 283 283 283 282 282 282 282 282 284 285 285 287 289 290 290 285 281 281 280 280 279 278 278 278 279 279 279 279 281 282 282 282 283 283 283 283 283 283 283 282 280 278 277 276 276 276 275 275 275 275 274 275 276 275 276 276 276 275 276 275 275 274 273 272
284 284 284 284 284 284 284 283 283 283 284 284 284 283 284 283 283 283 283 282 283 283 283 283 283 283 283 282 282 283 283 286 289 289 290 290 288 283 281 280 280 279 279 278 278 278 278 278 278 280 279 279 280 279 281 282 283 282 282 282 282 282 282 279 277 276 276 275 275 275 275 274 275 275 275 275 275 276 276 276 275 275 274 274 274
284 284 284 283 283 283 283 283 283 283 283 284 284 283 283 283 283 283 283 283 283 282 283 283 283 283 283 283 282 283 282 286 289 289 290 290 289 285 280 280 279 279 278 278 278 278 277 278 278 279 279 282 281 279 277 277 281 281 282 281 281 281 281 282 282 279 278 276 275 275 275 275 274 275 276 276 277 275 275 275 276 276 276 276 276
283 284 283 283 283 283 283 283 283 283 284 283 283 283 283 283 284 284 284 283 283 283 283 283 284 283 283 283 283 283 282 285 288 289 289 289 288 285 280 280 279 279 278 278 278 278 277 277 277 277 277 277 277 277 277 277 277 277 277 276 276 278 280 281 281 281 280 277 276 274 275 276 275 276 277 278 276 275 276 276 277 276 276 276 277
283 283 283 283 283 283 283 283 283 283 283 283 283 283 283 283 283 284 284 284 284 284 284 283 284 284 283 283 283 283 283 287 288 289 289 288 286 284 279 280 279 278 278 278 277 277 277 277 277 276 276 276 277 278 277 277 277 277 276 276 276 276 276 276 276 276 277 277 276 276 277 277 277 278 278 279 279 278 278 277 277 277 277 278 278
283 283 283 283 283 283 283 282 283 283 283 283 283 283 284 284 284 284 283 283 283 283 283 283 283 283 284 283 283 283 283 287 288 289 287 286 285 282 279 278 278 278 277 277 277 276 276 276 276 276 276 276 278 281 280 279 277 276 276 276 275 276 276 279 281 281 280 278 278 278 278 279 281 280 280 280 279 279 279 279 279 278 276 275 273
283 283 283 283 283 283 282 283 283 283 283 282 282 283 283 283 284 284 283 282 282 282 283 283 283 283 283 283 283 283 282 286 288 287 286 285 284 279 278 278 278 277 276 276 276 276 276 276 276 276 276 275 279 281 281 280 277 276 275 275 275 275 275 277 279 281 281 281 281 282 282 282 282 283 283 283 281 280 278 276 274 276 273 272 272
283 283 283 283 283 283 283 283 283 283 282 282 283 283 283 283 283 283 282 282 282 282 282 282 282 282 282 282 283 282 281 284 286 285 285 284 283 279 278 277 276 275 275 275 275 275 276 279 279 277 276 276 279 280 280 279 276 275 275 274 274 274 275 277 277 278 280 280 280 280 281 281 281 282 282 282 282 280 276 272 274 274 271 271 269
284 283 284 284 283 283 283 283 283 282 282 282 283 282 282 282 282 282 282 282 282 281 281 281 280 280 280 280 282 281 278 281 285 284 284 283 282 279 278 276 275 274 274 274 274 275 275 276 278 278 277 278 280 280 281 279 276 276 275 275 274 274 274 276 275 275 275 275 276 277 277 279 278 278 277 280 280 278 275 274 273 272 270 271 271
284 284 284 284 283 283 283 283 283 283 282 282 282 282 282 281 281 281 280 281 280 280 279 280 279 279 278 278 279 278 278 278 280 282 282 282 282 280 277 276 274 274 274 273 273 273 274 273 275 278 279 279 279 280 280 280 277 276 276 274 273 273 275 275 276 276 275 276 276 276 276 276 276 275 274 274 274 274 274 274 273 273 271 270 270
284 284 284 283 283 283 283 283 283 282 282 282 282 281 281 281 280 280 280 280 279 278 278 278 278 277 276 276 276 277 278 278 279 281 281 282 282 280 277 275 274 273 273 273 273 272 273 273 273 276 278 278 279 279 279 279 279 277 276 275 275 276 278 276 276 277 276 275 275 274 274 273 273 273 272 272 272 273 273 273 273 272 271 270 269
283 283 283 283 283 282 282 282 282 283 281 280 280 280 279 279 279 278 277 277 277 277 276 275 276 275 275 274 275 276 278 279 277 280 280 281 280 280 278 275 275 274 273 273 273 273 273 273 272 275 277 278 278 278 279 279 279 277 276 279 280 280 277 276 276 275 274 273 273 272 271 271 271 271 271 271 271 272 272 272 272 272 272 272 270
283 283 282 282 281 281 280 280 281 282 281 280 279 279 278 276 277 277 277 276 276 275 275 274 274 273 274 275 276 276 276 277 280 278 279 279 279 279 279 278 279 276 274 273 273 273 274 274 274 276 277 277 277 278 279 279 279 277 279 279 279 279 277 274 274 273 272 271 270 269 269 269 269 269 269 269 270 271 271 271 271 271 271 271 271
282 282 281 280 280 279 279 279 280 279 279 278 278 277 276 276 275 275 275 275 274 273 273 272 272 272 273 275 276 276 276 275 278 279 277 278 278 278 278 278 278 276 275 274 274 274 273 273 274 276 277 278 279 279 279 278 277 278 278 278 277 277 274 273 272 271 270 269 268 267 267 268 268 268 268 269 270 270 270 270 269 269 269 269 269
281 281 281 280 279 279 278 278 278 277 277 277 277 276 274 274 274 274 273 273 273 273 272 271 271 272 273 274 274 274 275 274 274 275 276 276 277 277 277 277 277 277 274 273 273 273 275 277 278 278 278 278 277 277 276 275 276 276 276 277 275 273 271 270 269 268 267 267 266 266 266 267 268 268 269 269 269 268 267 267 267 267 268 268 268
281 281 280 279 279 277 277 276 276 276 276 276 276 275 276 274 274 272 273 272 272 272 271 271 271 270 271 271 272 273 273 273 272 272 273 273 273 275 275 276 275 275 275 274 275 277 277 277 277 276 275 274 273 272 272 273 275 275 275 273 271 270 269 268 267 267 266 265 265 265 266 266 267 267 268 267 266 265 265 264 264 264 264 264 264
281 280 279 279 277 276 276 275 275 274 274 275 274 273 274 274 274 271 271 271 269 270 269 269 269 270 271 271 272 272 271 270 269 267 266 267 268 269 271 270 273 274 273 273 274 273 273 273 273 275 275 275 274 273 272 272 271 270 270 269 269 269 268 267 266 266 265 265 265 265 265 266 266 265 264 263 263 263 264 263 262 262 263 263 262
280 279 279 278 278 277 277 276 276 274 273 274 273 272 272 273 272 271 271 270 269 268 268 270 271 271 271 271 270 268 266 265 265 265 266 266 266 268 268 270 271 272 272 273 273 273 272 273 273 272 272 271 270 270 269 269 270 269 269 268 267 267 268 268 268 266 265 265 264 264 264 263 262 262 262 262 262 262 263 262 262 261 262 261 260
279 278 278 276 277 277 277 276 275 274 273 271 271 271 271 272 272 271 270 269 269 269 270 271 272 271 269 268 266 264 264 264 264 272 271 274 272 271 271 272 273 272 274 275 273 273 272 271 270 269 269 268 268 268 269 268 268 268 267 266 266 265 264 264 263 263 263 262 262 262 261 261 261 261 261 261 261 261 261 261 261 260 261 261 259
276 278 277 277 277 275 276 273 273 273 273 272 269 267 272 275 274 270 268 274 275 276 275 271 269 267 266 265 264 264 264 266 273 275 275 275 276 276 276 276 276 274 274 275 273 270 269 268 268 268 268 268 267 267 267 266 265 265 265 266 265 263 263 263 262 262 262 262 261 261 261 261 260 260 260 260 260 260 261 262 260 260 259 259 258
277 277 276 276 276 275 273 272 273 273 272 271 269 268 267 268 275 276 274 274 274 274 275 275 275 274 270 266 270 275 275 275 275 275 275 275 275 275 275 275 275 274 274 271 269 269 268 268 268 268 267 267 266 265 265 264 263 263 263 263 262 262 262 262 261 262 261 261 261 261 260 260 260 260 259 259 259 259 259 260 260 259 259 258 258
277 277 276 274 275 274 273 273 273 272 271 269 269 268 267 265 267 273 274 274 274 274 274 275 275 275 275 274 273 272 273 274 274 274 273 273 273 273 273 273 273 273 273 274 269 268 268 267 266 266 265 264 264 263 263 263 262 262 261 261 261 261 261 260 261 261 260 260 260 260 260 260 260 259 259 259 259 259 259 258 259 258 258 258 258
277 275 275 274 273 273 273 273 272 271 270 269 268 267 267 266 266 266 270 273 273 273 273 274 274 274 274 274 274 273 273 273 274 274 272 272 272 271 272 272 273 273 273 270 268 266 266 266 265 264 263 262 262 262 262 262 261 261 261 260 260 260 261 261 262 261 260 260 260 260 260 260 260 259 259 259 259 258 258 258 258 258 258 257 257
275 274 273 273 274 274 273 272 271 270 270 269 268 267 266 266 264 263 263 263 264 268 271 272 271 271 272 272 272 272 272 272 271 271 270 270 271 271 272 270 272 273 271 267 265 264 263 262 262 261 261 261 261 261 261 261 261 260 260 260 260 260 260 261 260 260 260 260 259 259 259 259 259 259 258 258 258 258 257 257 257 257 257 257 257
273 273 271 272 275 274 273 272 271 270 269 268 267 266 265 263 263 261 261 261 261 260 259 261 267 269 266 268 269 270 270 270 270 270 270 270 271 271 271 267 264 262 261 261 261 261 260 260 260 260 260 260 260 260 260 260 260 260 259 259 260 260 260 260 259 259 259 259 259 259 259 259 259 259 258 258 257 257 257 257 257 257 257 257 257
275 274 273 273 273 273 272 271 269 268 268 267 266 265 264 262 262 261 261 260 260 259 260 260 260 266 267 267 267 267 267 268 268 269 269 270 269 270 263 261 260 259 259 259 259 260 260 260 260 260 260 260 260 259 260 259 259 259 259 259 259 259 259 259 259 259 259 259 259 259 259 259 259 258 258 258 258 257 257 257 257 258 258 257 257
274 273 273 272 272 271 270 270 269 269 267 265 264 262 262 262 260 260 260 259 259 259 260 258 258 259 263 262 264 265 266 266 267 267 267 267 268 264 258 258 258 258 258 258 259 259 259 259 259 259 259 259 259 259 259 259 259 259 260 259 259 259 258 259 259 259 258 258 258 258 258 258 258 258 258 257 257 258 258 258 258 258 258 258 258
273 272 272 271 270 269 268 267 266 265 264 262 262 261 261 261 259 260 260 259 259 258 257 257 261 258 258 258 263 261 260 263 263 262 262 262 261 256 257 257 257 257 258 258 258 258 258 259 259 258 259 259 259 259 259 259 259 259 258 258 258 258 259 259 259 259 258 258 258 258 258 258 258 258 258 258 257 257 257 258 258 257 258 258 258
271 270 269 269 269 268 266 264 264 263 262 262 261 261 261 260 260 259 259 258 257 258 258 256 257 257 258 257 256 259 259 256 255 255 256 255 255 255 255 256 256 257 257 258 258 258 258 258 258 259 258 258 258 258 258 258 258 258 258 258 258 258 258 258 257 258 258 257 258 258 258 258 258 258 258 258 258 258 258 258 258 258 257 257 257
267 267 268 268 267 266 264 264 264 264 263 262 261 260 260 259 258 258 257 256 257 256 256 257 257 256 257 256 256 256 256 256 255 255 255 255 255 255 255 255 256 256 257 257 257 257 257 258 258 258 258 258 258 258 258 258 258 258 258 257 257 257 257 257 257 257 257 258 258 258 258 258 259 259 259 258 258 258 258 258 258 258 258 258 258
267 266 265 267 266 265 264 264 264 263 262 262 261 260 259 258 257 257 256 256 256 256 256 256 256 256 257 260 262 261 257 256 256 255 255 256 256 255 255 256 256 256 257 257 257 257 257 257 257 257 257 258 258 258 258 258 258 257 257 257 257 257 257 257 257 257 257 258 258 258 258 259 259 258 258 258 259 259 259 259 259 259 259 259 259
266 265 265 264 265 265 264 263 263 262 262 261 260 259 258 258 256 256 256 256 256 256 255 255 255 255 259 262 261 262 259 255 255 255 255 255 255 255 256 256 256 257 257 257 257 257 257 257 257 257 257 257 257 257 257 257 257 257 257 257 256 256 256 257 257 257 257 258 258 258 258 258 259 259 259 260 259 259 259 259 259 259 259 259 259
265 265 265 264 265 264 263 263 262 261 260 259 258 258 258 256 255 255 255 255 255 255 255 255 255 255 256 260 260 260 257 255 256 256 255 255 255 256 256 256 256 256 257 257 257 257 257 257 257 257 257 257 257 257 257 257 257 257 256 256 256 256 256 256 257 257 258 258 258 258 259 259 259 259 259 259 259 259 259 259 259 259 259 259 259
265 264 264 263 264 263 262 262 261 260 259 258 258 257 256 255 255 254 254 254 254 254 254 254 254 254 254 255 257 256 255 255 254 254 255 255 255 256 256 256 256 256 256 256 257 257 257 256 256 257 257 257 257 257 257 257 257 257 256 256 256 256 256 257 257 257 258 258 258 258 258 258 259 259 259 259 259 259 259 259 259 259 259 259 259
265 264 263 263 262 262 261 260 260 259 258 257 255 255 255 254 254 253 254 254 254 254 254 254 254 254 254 253 253 254 254 254 255 255 255 255 255 255 255 255 256 256 256 256 256 256 256 256 256 256 256 256 257 257 257 257 257 257 257 257 256 256 256 257 257 258 258 258 258 258 258 258 258 259 259 259 259 259 259 259 259 260 259 259 259
264 264 263 262 261 260 260 259 258 258 257 256 255 254 254 254 253 253 253 253 254 253 253 253 253 253 253 253 253 253 254 253 253 254 254 255 255 255 255 255 255 255 255 256 256 256 256 256 256 255 255 256 256 256 256 257 257 257 257 257 257 257 258 258 259 259 258 258 258 258 258 259 259 259 259 259 260 260 260 260 260 260 260 260 260
264 263 262 262 261 260 259 258 258 257 256 256 255 254 253 253 252 253 254 254 253 253 253 252 252 253 253 253 253 253 253 253 253 254 254 254 254 254 254 255 255 255 255 255 255 255 255 255 256 255 255 255 256 256 256 256 256 257 257 257 257 258 258 259 259 259 259 259 259 259 259 259 259 259 259 260 260 260 260 260 260 260 260 260 260
263 262 262 261 260 260 259 258 257 256 256 255 254 254 253 253 252 252 252 252 252 252 252 252 251 252 252 253 253 253 253 253 253 254 254 254 254 254 254 254 254 254 255 255 255 255 255 255 255 255 255 255 255 255 255 256 256 256 257 257 257 258 258 259 259 259 260 260 260 260 259 259 259 259 260 260 260 260 260 260 261 261 261 261 261
262 261 261 260 259 259 258 257 256 256 255 254 253 253 253 252 252 251 252 252 252 252 251 252 252 252 252 253 253 253 253 253 253 253 253 253 253 253 254 254 254 254 254 254 254 255 255 255 255 255 255 255 255 255 255 255 255 256 256 257 258 260 260 260 260 260 260 260 260 260 260 260 260 260 260 260 260 261 260 261 261 261 261 261 261
261 260 259 258 258 257 257 256 256 254 253 253 252 251 251 251 250 251 251 251 251 251 250 251 252 252 252 252 252 252 252 252 252 252 252 253 253 253 253 253 253 253 253 254 254 254 254 254 254 254 254 255 255 255 255 255 255 256 256 257 259 259 260 260 260 261 260 260 260 261 260 260 260 260 260 261 261 261 261 261 261 261 261 261 261
259 259 259 258 258 257 256 255 254 252 252 251 250 250 250 250 250 250 250 250 250 251 250 251 251 251 251 252 252 252 252 252 252 252 252 252 252 253 253 253 253 253 253 253 254 254 254 254 254 254 254 254 255 255 255 255 256 256 258 259 259 260 260 261 260 261 261 262 261 261 261 260 260 260 261 261 261 261 261 261 261 261 261 261 261
Wind_Speed
5 5 4 4 4 4 4 4 3 3 3 4 3 3 3 3 3 3 2 1 3 2 2 2 2 1 1 0 0 0 0 0 1 0 0 0 0 0 0 0 1 2 2 3 2 3 3 3 4 4 4 4 4 4 5 5 5 5 5 4 5 5 7 8 11 15 10 6 10 12 14 15 15 11 16 15 14 13 10 12 12 11 10 10 11
6 6 5 5 5 5 5 4 4 3 4 4 4 4 4 4 4 3 3 4 3 3 3 3 1 1 1 1 2 2 2 1 1 1 1 1 1 1 0 1 2 2 3 4 3 3 3 4 4 4 4 4 4 5 5 5 5 5 4 4 5 6 5 8 11 12 17 9 9 10 10 11 16 12 13 18 17 15 16 14 12 11 11 11 11
7 7 6 6 7 6 6 5 5 5 5 4 4 4 4 4 4 4 4 4 4 4 4 4 4 4 3 4 4 3 3 3 3 2 2 2 2 2 2 2 2 3 3 4 4 3 4 4 5 5 4 4 4 5 5 5 5 5 5 5 6 6 6 7 10 13 15 14 8 11 10 9 10 13 13 13 15 14 17 15 13 12 11 12 13
8 8 7 8 7 7 7 7 7 7 6 6 6 5 5 5 4 5 5 4 4 4 4 4 4 4 4 4 4 4 4 4 4 3 4 3 3 3 3 3 3 3 4 4 4 4 4 4 5 4 4 4 5 5 5 5 5 5 5 5 6 8 7 7 8 11 13 16 11 9 10 10 9 11 10 11 14 14 13 14 14 14 14 12 12
8 8 8 8 8 8 8 8 8 8 8 7 7 7 6 6 6 6 6 5 5 5 5 5 5 5 6 6 6 5 5 4 4 4 4 4 4 4 4 3 4 4 4 4 5 4 4 4 5 4 4 5 5 5 6 5 6 5 5 6 7 8 7 8 9 9 12 15 15 9 9 10 9 10 11 13 12 11 11 14 15 14 14 11 10
8 8 8 9 9 9 9 8 9 9 9 8 8 8 8 7 7 6 7 7 6 6 6 6 6 7 7 7 6 6 5 5 5 5 5 4 4 4 4 4 4 4 4 4 4 4 4 4 4 4 4 5 6 6 5 6 5 5 7 8 8 8 8 9 9 10 11 13 14 16 10 9 10 8 8 11 13 14 13 12 11 11 12 14 11
8 8 9 9 9 9 9 10 10 9 9 9 8 8 8 8 8 8 7 7 7 7 7 7 7 7 8 7 6 6 6 5 6 6 5 5 5 5 4 4 4 4 4 4 4 4 4 4 5 5 6 6 6 7 6 5 6 7 8 9 8 8 9 8 8 10 10 12 13 12 14 11 8 12 9 8 11 12 13 14 15 8 7 11 15
7 8 8 9 9 10 10 10 9 10 8 8 9 9 9 8 8 7 6 8 8 8 8 8 8 7 7 6 7 6 6 6 6 6 5 6 5 5 5 4 4 4 3 3 4 4 5 5 5 5 6 6 6 6 5 7 7 8 8 8 8 8 9 9 8 9 10 11 12 13 12 12 10 8 8 8 9 10 8 9 14 16 12 9 10
8 8 8 9 11 10 8 7 8 8 8 8 9 9 9 8 8 7 7 8 8 9 8 8 7 7 6 7 7 6 6 7 6 6 6 6 5 5 5 4 3 3 3 4 4 5 5 5 5 5 6 10 12 11 11 11 9 10 8 6 8 8 9 9 9 9 10 11 13 11 12 13 11 11 11 9 8 11 12 10 12 12 14 12 9
7 7 8 10 9 7 7 7 8 7 8 10 10 9 8 9 9 9 10 9 8 7 7 8 8 8 8 7 6 6 7 6 9 12 10 6 5 5 4 3 3 3 4 4 5 5 6 6 6 10 12 12 13 13 13 14 15 12 10 8 9 9 10 10 10 9 10 12 12 12 14 14 12 11 12 11 10 9 11 11 12 11 12 12 12
6 7 10 9 8 6 6 8 7 8 10 9 8 9 9 9 9 9 9 8 8 8 8 9 8 8 8 8 8 8 7 7 13 13 13 13 7 5 4 4 3 4 4 5 6 7 6 5 5 7 9 10 10 12 14 17 17 19 20 19 16 12 11 12 11 9 10 12 12 12 13 16 15 12 11 13 10 10 10 10 12 13 12 15 16
7 8 9 7 6 6 7 6 7 9 9 10 10 8 7 8 8 8 8 8 9 8 9 10 10 9 9 9 9 9 8 10 14 14 13 11 9 6 5 5 4 4 4 6 6 6 6 6 5 5 6 7 8 7 10 13 16 18 19 19 19 20 18 14 13 12 11 12 13 13 13 12 14 11 11 11 11 11 10 12 13 13 15 14 14
7 8 8 7 7 7 6 7 8 8 9 10 8 7 7 7 8 8 11 11 8 8 11 10 11 10 10 10 10 10 8 11 14 14 12 11 12 9 6 4 5 5 5 6 6 6 6 7 7 5 5 10 9 8 8 9 12 15 17 18 18 19 20 21 20 15 13 14 13 14 11 12 15 13 9 12 14 15 12 12 13 13 14 19 16
7 8 7 7 7 7 7 7 8 9 9 8 7 7 8 10 11 10 9 8 9 10 10 11 11 10 10 10 10 9 9 11 14 13 11 13 13 9 4 4 4 4 5 6 7 7 7 7 7 7 5 6 7 8 9 9 9 9 9 8 9 10 14 17 20 22 19 13 13 15 14 10 13 14 15 16 17 17 16 18 14 20 18 20 20
7 7 7 7 7 7 7 7 9 9 8 7 7 8 10 10 10 9 9 10 10 11 11 11 10 10 10 9 8 8 8 11 12 13 12 14 13 8 3 3 3 4 5 6 7 6 6 7 7 8 7 6 7 9 10 10 9 9 9 10 9 9 8 9 9 9 9 9 11 13 14 13 14 14 15 15 18 18 16 19 21 21 20 18 18
8 6 7 8 7 7 7 8 8 8 8 7 8 9 10 10 11 10 8 8 8 7 7 7 9 10 9 8 7 9 7 11 12 12 13 12 10 3 3 3 4 5 6 6 6 6 6 7 7 8 8 8 9 16 16 12 11 11 11 11 10 9 9 10 17 19 16 14 13 13 14 17 22 21 21 20 19 18 16 14 12 13 16 17 19
8 7 8 8 7 7 7 8 8 9 8 8 9 10 10 10 10 7 7 8 8 8 9 9 8 7 7 7 8 8 6 9 11 11 10 9 5 2 2 3 4 5 6 6 6 6 6 6 7 8 8 8 11 17 20 19 12 12 11 11 10 10 11 9 14 21 22 24 26 28 29 30 30 31 31 33 26 22 17 16 14 13 14 16 18
8 7 8 8 8 7 8 8 9 9 8 9 10 10 9 7 8 7 8 8 9 9 8 6 6 7 7 8 8 7 4 6 10 9 8 8 5 3 3 4 5 6 7 5 5 6 6 11 12 9 9 9 12 18 20 16 11 11 11 12 13 14 15 11 8 11 20 24 26 29 29 29 31 32 33 32 31 27 16 17 18 17 18 19 21
7 8 9 8 7 7 7 8 8 8 8 9 8 8 8 8 7 5 7 7 8 6 5 6 5 5 5 5 6 5 3 5 8 8 7 7 5 3 4 4 5 6 6 6 5 6 6 7 11 12 11 12 18 19 21 17 11 10 11 13 17 17 14 12 12 13 13 14 14 14 14 19 17 14 16 29 32 30 18 16 13 13 14 16 16
8 8 8 7 7 7 7 7 8 8 9 8 7 7 6 4 5 5 5 6 6 4 4 5 5 4 3 3 3 4 4 3 3 6 7 9 10 4 3 4 6 7 6 6 7 5 5 6 7 12 17 18 18 20 20 21 14 11 13 15 16 18 14 12 12 14 13 13 13 14 15 13 15 14 14 14 16 16 18 13 12 12 14 13 13
7 7 7 7 7 7 6 7 8 7 6 7 6 5 5 5 4 5 5 5 4 3 4 3 3 3 3 3 3 2 3 3 3 7 9 10 10 8 3 5 5 6 6 6 6 7 7 6 6 9 16 18 19 21 21 21 20 14 14 15 16 18 21 15 14 18 14 12 12 13 13 13 13 12 12 12 12 11 11 15 12 12 13 13 15
7 6 7 7 6 6 5 5 5 6 5 4 4 5 4 4 5 4 4 4 4 4 3 3 3 2 2 3 3 3 4 6 4 6 9 9 9 10 5 4 5 6 7 6 6 7 7 6 5 8 16 19 20 21 22 22 24 15 17 24 29 30 21 15 13 12 11 12 12 11 12 12 11 10 11 11 12 13 12 12 13 13 11 10 14
6 6 6 5 5 5 5 5 5 4 4 5 5 6 3 3 3 4 4 4 4 4 3 3 3 3 2 2 2 3 3 4 6 4 7 9 10 10 12 9 12 8 7 7 7 7 7 7 7 13 18 19 21 22 23 26 23 18 26 27 27 30 25 13 12 11 11 11 12 13 13 13 12 12 12 13 13 12 12 11 12 12 13 12 13
5 5 5 5 5 5 5 5 5 5 5 4 5 4 4 3 3 3 3 4 4 3 3 3 3 3 3 3 3 3 3 3 3 4 4 8 9 11 12 14 14 8 7 7 7 8 10 10 10 18 21 22 24 24 24 24 19 25 27 27 27 24 14 12 10 11 12 13 14 13 13 12 11 12 13 12 12 12 12 11 13 13 13 13 14
5 5 6 5 5 5 4 4 4 4 4 4 4 4 4 4 3 2 3 3 4 4 3 3 4 3 3 4 3 1 1 1 1 0 3 4 8 11 13 15 15 15 9 6 6 7 13 20 22 22 22 23 25 24 21 22 26 25 26 27 25 13 12 11 12 11 12 12 12 12 12 11 12 12 12 13 13 11 11 11 14 14 13 13 16
6 7 6 5 5 4 5 3 2 2 3 3 4 4 5 4 5 3 4 4 4 4 4 5 4 3 2 2 2 2 1 1 1 1 2 3 5 10 14 13 13 13 13 12 17 22 21 21 23 24 22 20 15 12 11 13 23 28 29 26 14 12 10 10 10 10 11 12 12 13 12 11 12 12 12 11 10 12 11 12 13 13 10 11 14
7 6 6 5 4 4 5 5 4 3 3 3 2 3 5 4 5 4 5 5 4 4 3 3 2 2 3 3 3 3 3 2 1 1 2 4 5 5 5 5 9 12 10 9 11 10 11 13 15 21 20 26 26 24 23 21 17 14 11 10 9 9 8 8 10 11 12 12 12 12 12 12 11 12 10 10 11 12 9 11 13 13 12 12 13
7 6 6 5 5 5 6 7 7 5 4 4 4 3 3 5 6 6 6 6 6 4 4 3 4 4 4 5 5 3 3 2 2 3 5 5 6 5 4 5 6 7 7 7 7 9 10 13 16 11 10 10 11 9 9 10 12 12 11 9 9 9 11 14 14 11 11 11 12 12 12 12 12 12 11 11 11 10 8 10 12 13 12 10 11
5 5 5 4 6 6 6 6 5 5 4 3 3 2 5 5 5 4 3 3 4 6 6 5 4 4 4 4 3 2 2 3 4 5 6 7 7 5 5 5 5 5 9 18 14 10 9 9 8 9 9 11 11 12 11 10 10 10 11 11 10 10 9 8 10 11 10 10 12 12 13 12 12 11 11 13 12 11 8 10 11 11 13 11 13
6 7 6 6 6 5 5 5 5 6 6 6 5 3 6 6 5 6 3 4 5 4 4 4 3 3 1 1 3 4 5 5 7 12 13 14 16 18 17 18 18 15 17 23 16 11 9 10 10 10 10 9 9 9 10 9 10 11 10 10 10 9 10 10 9 10 10 11 11 12 13 12 13 12 11 13 13 11 9 11 13 10 12 13 14
7 7 6 6 6 6 5 5 5 5 5 6 5 5 4 1 4 7 6 5 4 4 4 3 4 4 5 3 3 8 10 11 13 13 15 16 16 17 18 18 19 20 21 15 10 10 9 9 8 7 8 9 10 10 11 10 10 10 11 11 10 10 10 10 10 10 11 11 12 12 12 13 14 13 13 13 13 13 10 9 10 11 12 13 13
7 7 6 5 6 6 6 6 6 6 5 5 6 6 6 5 2 4 5 5 5 4 3 3 4 5 7 6 4 3 7 11 13 13 14 15 16 17 18 18 19 21 21 21 11 9 7 8 9 10 10 11 12 10 10 10 10 10 10 11 12 10 9 11 10 10 11 12 12 13 12 13 13 14 13 13 13 13 11 12 11 11 12 12 12
7 6 5 6 6 7 6 6 6 6 7 7 6 7 7 7 6 4 3 3 3 2 3 3 5 5 6 7 8 8 8 9 12 13 14 14 16 15 17 20 20 20 20 12 8 9 8 8 10 10 10 11 11 10 11 10 10 11 10 11 13 13 11 11 12 12 12 13 13 13 13 13 13 14 14 13 13 14 12 11 10 10 11 11 15
7 6 6 6 6 6 6 6 7 6 6 6 6 7 6 6 6 6 6 1 1 1 3 4 5 5 6 6 7 8 9 11 12 13 13 14 15 17 17 14 18 18 14 9 8 9 8 8 9 10 10 10 10 10 11 11 10 11 11 11 12 12 13 11 11 13 12 12 12 13 13 13 13 13 14 13 12 11 12 12 11 11 12 12 14
5 6 8 7 5 6 6 6 6 6 6 6 6 6 6 4 5 5 5 5 4 3 3 2 4 4 3 3 6 8 10 11 12 13 13 14 15 17 17 9 8 6 6 5 7 8 9 9 9 10 9 10 10 10 11 12 11 11 11 12 12 12 12 12 12 13 13 13 13 13 13 13 14 13 14 14 13 12 11 12 11 11 12 13 12
6 5 5 6 6 5 5 6 6 6 6 6 5 5 5 5 5 5 4 3 3 3 3 3 2 2 4 6 7 8 9 10 11 12 14 15 16 15 7 6 6 6 6 6 6 8 8 8 8 10 10 10 10 10 11 12 12 12 11 12 13 13 13 13 13 13 13 13 14 14 14 14 13 13 13 14 15 15 13 12 11 13 14 13 12
6 6 5 5 6 6 6 6 5 5 5 6 6 5 5 5 5 4 4 4 3 3 4 3 3 5 3 1 4 6 7 8 11 13 14 14 14 8 4 6 7 7 8 7 6 7 9 9 8 9 10 10 11 11 11 11 12 12 12 13 13 13 13 13 14 14 14 14 14 14 15 14 14 13 12 14 14 13 13 13 13 13 13 15 16
6 7 6 7 7 7 7 6 6 7 6 5 5 5 5 5 4 4 5 4 3 3 3 4 4 5 5 5 3 1 3 6 8 8 7 8 7 5 6 6 6 7 8 8 8 8 9 10 8 9 10 10 11 11 11 12 11 12 12 13 13 13 16 17 18 16 16 15 15 14 14 14 13 13 13 14 15 14 14 13 12 13 14 15 14
5 8 11 10 7 7 7 7 6 6 5 5 5 5 4 5 4 4 4 3 3 4 5 4 5 4 5 4 4 2 3 4 4 6 5 5 6 6 6 6 6 7 8 8 8 9 9 10 10 9 9 10 11 11 11 12 12 12 13 13 14 13 13 13 14 14 14 14 14 14 14 14 13 13 13 14 15 14 14 14 14 14 14 13 12
7 6 8 10 6 7 6 6 6 6 4 6 5 4 5 5 5 4 4 4 5 4 4 5 5 5 4 2 4 3 5 6 6 6 6 6 6 6 5 6 7 7 8 9 8 9 10 10 9 10 10 10 11 12 12 12 13 13 13 13 13 14 14 14 14 14 15 14 14 15 14 15 14 14 14 14 14 15 16 16 15 14 14 13 14
7 8 7 7 7 7 6 5 5 6 5 5 5 5 5 5 4 5 4 4 5 3 4 5 5 5 4 5 7 7 5 6 6 6 7 7 7 6 6 6 7 8 8 8 9 9 9 10 10 10 10 10 11 12 12 12 13 13 13 13 13 14 15 15 15 15 16 15 15 15 15 14 15 14 15 15 15 16 16 16 16 15 15 15 14
9 9 8 8 7 7 6 4 4 5 6 4 6 6 5 5 4 4 5 4 5 5 4 5 5 5 6 9 9 11 7 6 5 7 6 6 7 7 7 7 7 7 8 9 9 10 10 10 10 10 11 11 11 12 12 13 13 13 13 13 14 15 15 15 15 16 16 16 15 16 15 15 16 16 17 16 15 15 15 14 14 14 13 13 13
9 8 9 6 6 6 6 6 6 6 5 5 5 5 5 4 4 5 4 4 4 4 4 5 5 4 4 6 8 9 6 6 6 7 7 7 7 7 7 8 8 8 8 9 9 9 10 10 11 11 11 12 12 12 12 13 13 13 14 14 14 15 16 16 15 15 15 15 16 16 17 16 15 15 15 15 15 15 14 15 14 14 13 13 13
7 6 4 5 5 5 4 6 6 5 5 5 5 5 5 4 3 3 4 4 4 4 5 5 4 5 5 5 5 6 6 6 6 7 7 7 7 8 8 8 8 8 8 9 9 9 9 10 11 11 11 12 12 12 12 13 13 13 14 15 15 16 16 16 15 15 15 16 16 16 16 16 16 15 16 16 15 16 16 15 15 14 13 13 13
7 7 7 5 5 7 6 5 5 5 5 5 4 3 4 3 4 4 4 4 5 4 4 4 4 4 6 5 5 6 6 6 7 7 7 7 8 9 8 8 8 9 9 9 9 9 10 11 11 12 13 12 12 12 13 12 13 13 13 14 15 16 16 16 15 15 16 17 17 16 15 14 14 14 15 15 14 15 16 15 14 15 15 14 13
7 7 5 7 5 4 5 5 4 5 5 5 5 4 5 5 5 5 5 4 5 4 4 4 4 4 5 5 6 7 7 6 7 7 8 8 8 8 8 8 9 9 9 9 10 10 10 11 11 12 13 13 13 13 13 13 13 14 14 14 15 16 16 16 15 16 16 16 16 14 14 14 14 15 18 16 14 14 16 16 16 15 15 15 15
7 6 6 5 6 4 4 4 5 5 5 5 4 5 5 5 4 4 5 5 4 5 4 5 5 5 5 6 6 6 7 6 7 7 8 8 9 9 9 9 9 9 9 9 10 10 11 12 12 12 13 13 13 15 14 13 13 13 13 13 14 16 15 15 16 16 16 16 15 15 14 16 15 15 19 17 16 15 16 15 14 18 17 16 16
6 5 5 5 6 6 5 5 5 5 5 5 4 5 5 4 3 4 4 3 3 4 4 4 5 5 6 6 6 6 6 6 7 8 8 8 8 8 9 9 9 10 10 10 10 10 11 11 12 13 13 14 14 14 14 14 14 13 13 13 14 15 20 22 18 18 15 15 16 16 17 16 15 16 14 17 16 16 16 15 15 13 15 15 14
5 5 6 5 5 6 5 5 4 5 5 5 4 5 5 4 4 3 4 4 4 4 4 5 5 5 5 6 6 6 6 7 7 8 8 8 8 9 9 9 10 10 10 11 11 11 12 12 12 12 13 14 14 14 14 14 15 14 15 14 18 29 32 33 25 20 24 20 17 17 18 17 17 16 18 17 18 16 17 16 16 16 15 14 15
5 5 5 5 5 4 4 4 5 5 5 5 5 5 3 4 3 4 3 4 4 4 5 5 5 6 6 6 7 6 6 7 8 8 8 8 8 8 9 9 10 10 10 11 11 12 12 12 13 13 13 14 14 14 14 14 14 15 15 16 26 32 33 35 35 36 28 19 17 15 16 16 18 17 17 15 16 17 17 16 17 15 17 18 16
4 5 5 5 5 5 5 5 4 4 4 4 4 4 4 4 4 4 4 4 6 6 5 6 6 5 6 6 7 6 7 7 8 8 8 8 8 9 9 9 10 10 11 11 12 12 12 12 12 13 13 14 14 14 14 14 14 15 21 30 33 33 35 35 27 29 38 30 20 18 17 19 18 17 16 17 14 15 18 19 17 16 14 14 15
Wind_Direction
184 203 193 193 187 198 207 197 208 183 188 181 203 189 174 176 180 201 180 236 166 213 227 216 218 182 216 207 207 224 207 256 198 165 196 143 313 196 242 311 301 298 317 314 308 315 311 314 311 306 306 314 302 304 306 304 304 299 293 296 302 300 301 294 295 297 296 292 302 311 315 317 313 323 314 316 318 316 309 311 311 309 308 308 309
195 198 199 193 192 198 204 200 200 202 201 201 202 214 189 190 195 196 180 220 189 208 235 223 216 251 220 246 242 241 228 227 238 171 219 243 263 241 247 297 306 300 317 309 306 303 306 307 302 299 297 296 298 298 294 301 299 293 288 294 293 295 295 301 297 296 300 306 299 299 303 314 305 319 317 316 317 316 314 315 313 312 311 310 307
195 192 196 199 199 194 195 197 192 200 202 214 208 216 217 200 198 193 202 214 212 200 220 226 221 228 233 231 239 243 233 230 221 201 220 226 232 244 237 244 270 277 278 281 284 290 302 294 290 295 297 303 297 290 292 292 289 289 291 287 288 288 293 292 296 295 296 297 301 299 302 300 296 307 310 305 305 309 309 312 314 312 310 310 308
193 192 197 202 200 194 196 198 190 193 200 207 211 212 212 208 203 201 206 209 217 219 209 224 225 227 227 236 235 235 232 227 221 216 218 219 227 236 239 234 239 248 253 258 269 273 273 282 280 284 290 292 290 289 284 284 287 288 290 288 290 295 293 289 285 289 297 298 300 295 298 300 295 294 296 295 299 306 306 304 306 306 307 307 305
196 197 195 200 202 199 200 197 197 197 199 200 209 211 208 206 205 205 203 210 217 215 221 214 221 224 226 229 233 229 224 218 222 227 226 217 216 224 229 227 231 236 245 251 260 265 267 266 274 277 281 283 281 279 278 276 275 276 281 291 293 293 294 291 291 289 292 295 299 294 296 294 293 296 301 303 301 295 298 302 307 308 307 304 307
201 200 200 201 204 204 202 199 201 202 201 201 205 208 209 207 207 208 199 209 213 214 215 216 212 220 224 227 225 223 220 217 215 219 221 223 220 220 223 223 226 234 246 257 254 255 255 261 267 271 275 276 275 271 272 274 274 280 288 289 288 288 288 288 287 289 289 289 297 304 301 299 303 293 300 303 305 307 306 300 296 304 311 314 310
204 204 206 207 208 208 204 205 203 204 202 203 202 203 207 207 204 207 204 206 209 216 219 219 220 215 219 220 222 220 223 222 222 221 220 219 219 221 226 226 229 233 244 245 253 255 264 266 266 268 267 263 268 272 271 274 285 286 286 288 289 288 288 286 287 288 289 292 293 291 298 300 297 304 307 298 297 302 309 314 309 303 300 308 308
209 212 210 214 216 214 209 208 207 207 205 202 203 205 205 206 208 208 200 207 211 215 217 217 225 219 221 218 222 217 221 228 229 225 221 219 218 219 219 223 229 238 247 263 264 264 260 262 262 261 261 261 263 267 271 286 286 286 283 283 284 286 287 289 290 290 293 294 293 300 298 298 302 286 290 304 305 300 301 308 307 312 312 303 300
210 212 213 218 223 218 212 211 212 209 208 208 209 209 206 206 206 207 207 209 211 214 217 219 223 227 228 223 223 218 219 227 227 223 221 227 214 218 214 211 224 242 256 256 257 259 262 262 263 260 263 272 277 282 284 284 288 289 284 275 283 287 290 290 291 293 292 292 294 292 294 298 299 306 307 305 303 302 307 305 293 294 300 300 292
213 217 219 226 228 218 214 213 213 212 211 216 216 210 205 204 204 207 212 212 212 214 217 224 222 223 227 229 225 220 223 226 230 226 222 219 216 205 190 199 224 240 249 259 265 263 263 261 262 270 277 284 287 287 284 281 280 282 289 295 296 295 293 295 295 294 294 296 295 299 299 296 301 303 301 301 300 298 297 300 296 299 298 292 285
218 220 229 233 231 220 215 219 213 216 219 220 220 212 210 205 205 211 212 209 212 216 218 224 226 225 224 224 225 223 224 227 229 231 233 230 213 199 195 213 216 238 248 258 261 263 264 266 271 280 284 285 286 284 282 283 286 288 291 294 295 296 300 298 294 295 296 291 292 293 292 295 298 301 301 305 304 300 299 302 304 307 304 307 303
222 227 235 239 238 228 223 221 218 224 224 226 225 219 214 211 212 213 210 212 217 213 217 224 225 226 226 225 226 225 227 229 231 232 232 220 200 190 189 201 215 228 243 250 253 258 266 271 269 271 272 269 275 278 276 278 282 286 290 292 293 294 292 292 298 299 294 291 292 291 295 293 298 305 306 305 304 304 307 302 297 295 297 297 298
222 231 234 232 234 231 227 222 225 227 227 228 228 221 218 219 220 216 217 218 213 213 222 222 225 224 221 224 226 228 226 230 232 232 232 211 195 178 190 197 216 232 242 253 259 265 269 272 270 263 264 274 279 279 278 280 280 281 284 287 288 287 288 288 287 285 291 290 289 289 290 300 300 299 303 306 307 299 299 293 295 294 296 295 296
223 233 233 229 229 226 225 223 228 231 231 230 225 223 219 222 224 222 224 218 214 219 223 223 226 224 222 223 227 225 226 226 228 227 217 196 191 190 182 206 218 237 245 253 260 261 262 264 269 272 266 271 272 274 276 278 280 281 279 277 276 275 280 282 283 282 281 283 287 287 290 290 288 294 298 298 294 295 299 298 298 297 299 296 296
234 236 236 235 228 227 221 221 229 234 232 228 226 226 226 230 228 227 219 219 218 219 222 225 226 228 228 225 226 228 229 221 215 218 189 185 189 196 186 209 227 241 245 248 254 256 260 264 267 270 271 265 263 267 273 277 278 279 279 278 276 277 276 275 271 271 273 273 272 276 283 283 281 284 288 291 292 293 294 297 297 295 292 289 284
238 236 239 238 232 228 219 223 229 233 232 228 225 230 230 229 232 231 223 226 229 226 233 223 226 227 226 222 222 230 228 210 207 184 176 184 193 191 185 217 235 245 250 251 258 261 261 263 267 269 269 267 265 273 279 283 283 284 283 282 282 280 275 270 281 284 284 282 280 282 283 283 286 289 291 292 293 292 290 288 283 283 289 291 291
240 235 238 237 233 229 222 224 231 231 229 226 228 231 232 233 235 227 223 226 225 224 226 223 222 223 220 215 215 222 213 198 176 172 179 189 202 175 201 238 248 255 258 258 260 262 264 264 265 269 272 267 267 276 283 287 285 285 286 286 286 286 281 279 282 286 286 285 284 285 286 287 289 290 291 291 292 297 300 299 295 298 296 297 296
240 236 240 238 232 226 220 219 227 231 228 226 229 232 231 232 231 216 214 223 225 226 225 222 220 210 210 213 207 211 199 176 172 175 188 205 202 186 218 231 247 253 263 259 259 263 258 263 268 270 272 274 274 281 284 286 285 287 288 290 291 289 288 287 285 281 283 285 284 284 283 284 285 289 291 292 294 297 299 295 298 303 297 294 293
240 237 240 238 233 229 224 222 225 228 229 231 229 233 232 229 232 215 219 219 228 224 216 220 223 219 210 205 189 182 149 151 170 181 199 216 232 215 215 232 255 262 268 273 266 261 268 263 268 273 276 277 281 284 287 290 291 291 292 292 290 288 288 291 286 284 282 277 272 275 276 281 284 286 288 291 293 293 290 288 294 289 286 287 287
238 237 240 240 235 231 225 224 226 224 230 235 231 232 233 233 230 223 229 218 228 224 214 209 205 203 182 149 133 137 138 134 154 199 222 236 245 228 192 224 256 265 267 271 280 269 260 270 273 281 283 286 288 288 289 290 290 291 292 289 287 285 290 286 278 277 276 279 283 284 286 289 287 287 287 287 286 283 283 281 282 285 285 286 288
241 240 238 237 235 232 228 221 228 232 228 231 235 240 236 234 236 230 231 223 199 188 183 173 161 155 135 126 121 125 138 164 190 220 234 237 242 248 215 235 254 267 271 274 272 279 277 269 266 279 286 287 288 289 291 291 291 290 288 283 282 284 287 286 288 293 295 294 293 292 290 288 285 282 279 276 275 275 275 280 277 275 275 279 282
242 243 240 237 236 234 231 234 226 231 234 228 236 243 244 223 214 205 180 166 172 177 167 149 143 138 123 130 139 155 166 178 204 220 236 247 254 264 261 243 244 262 275 266 272 275 275 276 266 278 286 288 288 289 290 290 290 287 281 282 285 289 292 296 296 299 295 292 288 285 283 282 279 277 279 279 280 280 278 278 277 276 275 276 284
244 244 244 244 242 238 236 229 232 222 219 203 204 223 211 156 145 148 148 154 165 171 162 149 137 140 130 146 160 179 196 201 203 221 241 257 265 269 273 275 281 283 282 285 284 282 283 280 280 287 288 287 287 288 288 290 291 289 290 292 293 295 296 296 294 289 287 288 289 286 283 282 283 283 284 284 282 281 282 284 285 285 283 283 281
243 245 244 241 238 234 226 225 217 207 202 192 190 190 175 162 153 160 148 155 163 165 160 141 144 164 182 204 203 200 197 187 210 209 230 255 268 276 281 285 288 285 278 277 287 286 289 288 285 287 287 288 291 293 295 296 293 293 292 291 291 292 292 291 290 290 288 285 281 280 280 280 282 282 281 284 286 289 291 293 291 288 287 288 284
243 242 239 233 227 224 220 218 218 199 191 173 187 184 174 156 165 165 138 144 152 167 176 162 175 189 190 203 200 177 152 127 124 268 280 286 284 288 291 292 292 292 292 286 280 276 283 287 290 293 296 297 299 298 295 291 290 289 290 291 294 295 293 286 284 282 279 277 278 278 278 277 278 280 285 288 290 293 294 291 287 283 283 281 279
240 236 230 226 225 215 220 222 183 171 168 166 180 182 174 168 166 158 148 157 158 162 177 170 180 176 177 172 198 196 132 125 240 339 42 330 297 287 286 288 293 296 296 294 292 291 292 294 297 298 297 294 292 288 285 289 293 294 293 293 289 282 278 280 278 280 277 279 278 277 279 284 284 284 287 290 290 287 293 291 292 286 285 286 286
235 235 229 229 231 209 209 205 192 178 167 151 144 144 152 157 153 160 161 160 156 158 157 150 149 150 194 222 227 228 231 222 250 312 308 284 273 268 278 280 283 286 286 277 281 286 290 288 288 290 291 293 293 293 293 293 292 288 283 278 275 272 274 273 277 278 279 280 280 280 283 284 289 290 287 286 282 282 281 283 285 285 288 286 283
233 240 233 224 224 203 206 198 185 180 180 155 140 120 132 148 155 166 169 164 152 155 151 164 189 208 217 220 216 208 236 252 257 252 264 267 269 271 258 259 266 267 273 276 281 283 283 284 289 290 290 291 291 285 278 277 278 280 279 280 279 279 279 280 280 277 276 279 282 285 285 287 282 281 283 279 275 275 277 275 277 284 284 288 282
238 245 240 224 227 203 199 190 179 163 157 132 108 128 150 146 135 106 88 123 149 163 177 192 192 192 180 191 200 243 253 249 245 237 250 258 268 262 258 259 263 267 282 292 294 292 290 289 292 292 285 281 277 276 274 275 277 279 281 280 281 281 281 276 274 273 274 278 276 278 279 280 278 276 276 276 273 274 273 274 271 274 283 276 273
230 237 225 222 220 196 188 169 164 154 156 148 120 65 41 68 101 132 121 99 93 100 137 175 170 149 149 222 168 189 215 229 262 281 284 285 286 289 292 294 294 293 294 296 297 297 291 286 277 274 276 277 280 282 283 283 284 284 281 278 279 278 277 275 271 276 276 274 274 276 276 278 275 275 273 274 275 271 265 266 276 273 277 279 278
228 234 217 219 206 189 171 160 163 152 154 145 137 130 110 47 83 112 127 140 151 177 199 214 217 203 167 210 260 270 277 280 282 286 290 292 292 292 293 293 294 294 295 297 288 274 272 272 278 282 283 282 278 277 282 283 283 283 284 284 279 275 276 276 275 275 276 274 273 271 272 273 275 277 275 274 276 278 274 260 261 268 266 272 274
224 228 217 208 187 178 168 161 155 145 141 144 149 151 151 140 164 178 168 170 180 200 219 242 253 262 271 269 259 242 272 277 280 282 284 290 295 297 297 294 292 292 291 291 284 278 281 285 286 284 284 282 280 282 282 282 282 282 286 288 285 280 275 276 278 275 275 274 273 273 272 272 273 276 275 275 276 275 272 274 265 265 267 265 264
220 228 207 185 173 168 159 158 159 153 154 150 153 154 158 161 160 173 178 182 191 236 275 279 287 287 286 288 288 286 285 285 285 291 296 298 298 296 292 290 289 289 295 291 278 283 281 280 280 281 280 280 284 286 285 282 283 283 280 281 284 286 281 277 281 277 274 272 274 274 274 273 275 275 274 272 273 275 274 268 266 264 266 269 274
210 206 192 174 166 169 163 161 156 159 157 155 156 159 166 164 161 156 165 197 336 287 243 244 258 280 293 297 294 293 292 292 294 294 294 294 293 292 292 292 292 293 293 292 296 287 285 279 276 276 278 280 282 285 284 284 283 282 283 280 280 283 283 284 279 276 275 274 273 274 274 273 272 275 275 273 268 268 270 268 266 269 267 263 271
197 200 181 167 170 165 160 155 154 150 151 155 158 157 161 152 142 148 163 189 217 239 277 311 335 323 293 286 292 295 295 296 297 298 299 298 299 300 302 298 295 294 288 269 270 270 275 275 275 276 277 280 282 284 284 285 284 283 282 283 282 282 282 281 277 276 276 277 275 274 273 273 273 270 272 276 276 271 267 268 267 264 266 270 268
179 169 166 162 149 151 147 148 147 149 153 158 152 148 143 140 143 157 156 168 182 237 281 263 243 265 289 293 288 286 290 292 295 299 302 304 304 307 302 290 287 277 272 267 260 268 265 269 272 277 280 281 282 281 281 282 281 282 282 282 282 282 283 281 279 279 278 276 276 276 274 272 269 272 273 270 268 267 268 268 267 269 268 268 269
168 160 157 151 144 133 131 131 133 134 131 131 132 128 130 132 134 139 154 169 200 224 228 270 313 319 305 280 266 276 284 292 304 305 303 301 305 317 305 285 279 284 280 277 274 276 276 272 270 275 278 280 281 279 280 280 280 281 280 278 280 281 280 280 279 280 280 279 277 275 274 273 273 270 270 271 272 268 268 268 269 268 266 267 270
165 157 153 143 133 130 125 123 119 119 121 124 129 132 136 140 149 158 170 194 203 208 245 271 269 267 279 277 278 266 285 298 301 298 296 301 303 296 281 267 269 272 280 281 279 277 278 280 277 276 279 281 281 282 281 280 280 280 280 281 279 277 277 278 278 278 278 277 277 277 276 274 273 272 270 269 272 274 272 269 268 271 270 266 266
133 137 137 134 131 133 132 129 131 127 126 129 136 136 146 147 157 168 185 193 208 230 234 242 247 256 262 263 282 301 340 310 306 287 286 273 269 267 269 269 265 269 272 276 281 280 279 282 281 280 280 281 282 282 281 281 281 280 280 282 282 282 281 280 279 278 277 276 277 276 275 275 274 270 268 269 272 271 271 271 270 269 270 268 262
134 137 135 131 124 128 134 139 139 137 144 143 148 147 150 164 176 186 186 187 215 224 232 247 257 258 263 277 280 287 286 277 276 282 290 289 281 272 264 272 273 271 276 279 278 277 279 279 280 280 280 280 279 280 279 279 280 280 282 280 283 283 280 279 280 281 279 279 278 277 276 276 275 274 271 268 271 272 272 272 269 266 266 267 267
144 139 139 136 134 129 129 135 143 147 149 155 155 160 175 176 182 175 184 197 214 225 240 245 253 258 255 257 268 269 260 267 272 276 274 279 281 279 274 268 272 276 276 276 279 280 279 281 281 280 278 278 279 278 280 280 280 281 280 281 280 279 281 280 279 279 279 278 278 278 278 277 277 276 275 272 268 268 269 268 269 267 267 267 264
131 129 134 135 136 133 137 138 139 139 142 148 153 160 163 169 170 174 191 210 215 227 241 256 257 259 260 270 278 281 276 265 268 272 275 271 270 272 271 268 265 267 275 278 280 283 282 281 279 279 281 279 279 279 281 279 280 280 280 280 280 281 281 281 281 280 280 280 279 278 278 277 276 272 271 272 272 271 268 265 263 262 260 260 259
143 140 134 133 141 144 144 141 137 137 140 149 156 151 152 155 171 180 195 203 218 228 241 254 264 268 269 268 276 281 272 268 265 267 267 269 268 270 270 270 270 269 270 274 275 277 279 281 280 279 277 278 277 278 280 280 282 282 280 279 280 280 280 281 281 281 281 280 279 279 278 277 276 276 276 274 272 270 267 266 265 262 259 258 259
130 128 128 126 123 115 121 131 139 146 151 151 148 149 157 163 184 194 204 219 226 234 240 247 256 265 271 276 281 279 270 266 262 263 263 268 271 273 273 274 275 275 276 275 277 277 278 279 279 278 276 276 277 275 275 276 278 278 279 280 280 279 279 281 282 284 284 284 283 282 280 277 275 274 275 274 273 272 270 267 264 262 261 259 256
128 129 132 122 125 120 120 126 131 136 132 129 135 157 168 183 199 211 208 219 228 233 237 245 253 261 273 275 269 267 265 264 265 267 269 270 273 274 275 276 277 278 280 280 280 280 279 279 277 278 279 278 276 277 276 275 274 274 275 277 280 281 281 281 282 283 282 282 282 281 278 274 273 272 273 274 272 271 271 268 268 267 263 260 258
132 132 134 135 132 128 132 135 136 136 142 156 167 187 196 198 203 206 215 222 228 235 248 254 258 260 263 268 268 264 267 268 268 267 272 274 273 275 276 278 279 280 280 282 284 282 280 279 280 280 279 280 281 280 278 277 277 274 274 274 275 277 279 281 281 281 279 278 279 277 275 274 270 272 273 274 271 268 270 271 270 268 267 265 260
128 131 133 135 139 140 140 139 140 146 155 168 177 188 206 206 206 210 212 217 225 237 247 256 263 266 264 265 267 268 266 268 270 274 272 273 275 276 280 280 282 282 283 283 283 283 283 281 280 280 280 280 281 282 282 280 278 277 276 275 276 277 278 279 279 277 278 276 272 274 272 271 273 272 274 270 267 268 269 265 267 270 269 265 266
120 124 127 130 131 136 141 144 151 156 168 176 189 197 203 210 218 216 224 235 245 251 254 259 256 262 266 267 264 268 270 270 273 273 276 277 277 278 280 283 284 286 287 287 285 283 282 282 283 283 283 283 283 283 282 282 280 279 278 276 274 275 274 275 278 277 273 271 273 272 273 273 271 271 268 268 267 267 266 267 268 267 268 269 264
115 114 126 135 140 144 150 156 161 169 180 184 195 203 210 211 216 223 230 238 241 247 247 256 263 263 264 265 269 270 272 275 275 277 275 276 279 280 282 283 285 287 288 287 288 286 285 284 284 284 284 284 283 283 283 283 282 281 279 277 277 278 279 277 275 278 281 280 278 274 272 270 269 267 267 266 267 265 265 266 268 271 269 264 263
122 124 129 133 138 144 147 152 161 171 175 183 187 205 207 203 218 225 233 242 253 254 257 254 260 260 266 273 278 275 277 276 277 276 278 279 280 283 285 287 287 287 288 288 289 289 288 287 287 286 286 285 285 285 283 283 282 281 279 277 277 278 280 283 285 285 284 281 276 270 271 270 270 266 267 265 266 268 268 267 266 260 262 262 258
120 124 128 135 141 143 145 152 161 169 176 185 194 201 211 225 227 232 235 243 245 252 252 255 259 265 268 268 273 278 277 276 273 276 277 281 283 286 287 289 290 290 290 289 289 290 290 291 290 289 287 287 286 286 284 283 283 281 279 280 284 288 290 290 288 285 282 283 282 281 275 273 271 274 277 278 272 267 266 267 264 262 259 259 259